User: anonymous   Login
Location: Orange Harbor Mobile Home Park
(26.6923°N, 81.7937°W)
Time: 03:20:46
(UTC+00:00)
Language:

Okean 2 Rocket - Orbit

View from above orbital plane
View from above orbital plane
View from above satellite
View from above satellite

Ground track
Ground track

The orbit data is extracted from the following two-line orbital elements,

1 20511U 90018B   20339.44617356  .00000105  00000-0  10827-4 0  9998
2 20511  82.5244 214.8217 0015983 281.6950 250.7562 14.80057526659351
Epoch (UTC): 04 December 2020 10:42:29
Eccentricity: 0.0015983
inclination: 82.5244°
perigee height: 618 km
apogee height: 640 km
right ascension of ascending node: 214.8217°
argument of perigee: 281.6950°
revolutions per day: 14.80057526
mean anomaly at epoch: 250.7562°
orbit number at epoch: 65935

The dashed part of the orbit path shows where the satellite is in the earth's shadow,  

DLR